{"data":{"norad_id":48788,"epoch":"2026-09-19T22:16:36.994944Z","epoch_age_seconds":71296,"freshness":"FRESH","line1":"1 48788U 21045X   26262.92820596 -.00000592  00000+0 -16071-2 0  9990","line2":"2 48788  87.8998 240.2986 0002119  83.9832 276.1540 13.15545419256740","mean_motion":13.15545419,"eccentricity":0.0002119,"inclination_deg":87.8998,"raan_deg":240.2986,"arg_perigee_deg":83.9832,"mean_anomaly_deg":276.154,"bstar":-0.0016071,"rev_number":25674,"period_min":109.46030286773,"perigee_km":1200.1766092467,"apogee_km":1203.3889792555,"semimajor_km":7579.9197942511,"source":"CELESTRAK","updated_at":"2026-09-20T09:00:44.619675Z"}}